Regional Weather Roundup
Issued by NWS

Home | Current Version | Previous Version | Graphics & Text | Print | Product List | Glossary On
Versions: 1 2 3 4 5 6 7 8 9 10 11 12 13 14 15 16 17 18 19 20 21 22 23 24 25 26 27 28 29 30 31 32 33 34 35 36 37 38 39 40 41 42 43 44 45 46 47 48 49 50
000
ASUS43 KMPX 251901
RWRMN
WEATHER ROUNDUP FOR MINNESOTA
NATIONAL WEATHER SERVICE TWIN CITIES/CHANHASSEN MN
100 PM CST SUN FEB 25 2018


NOTE: "FAIR" INDICATES FEW OR NO CLOUDS BELOW 12,000 FEET WITH NO
SIGNIFICANT WEATHER AND/OR OBSTRUCTIONS TO VISIBILITY. N/A MEANS
CURRENT SKY AND/OR WEATHER CONDITIONS ARE NOT AVAILABLE.

MNZ060>063-068>070-252000-
   Twin Cities Metro

CITY           SKY/WX    TMP DP  RH WIND       PRES   REMARKS
TWIN CITIES    CLOUDY    25  17  72 W14       29.77R WCI  13
ST PAUL        CLOUDY    26  17  68 W16G24    29.77S WCI  14
CRYSTAL        CLOUDY    24  15  68 W13       29.75R WCI  12
BLAINE         PTSUNNY   27  18  69 W12G17    29.73S WCI  16
LAKEVILLE      CLOUDY    27  18  69 W10G21    29.77S WCI  17
EDEN PRAIRIE   CLOUDY    24  15  68 W13G20    29.76R WCI  12
SOUTH ST PAUL  CLOUDY    26  16  65 W10G16    29.76S WCI  16
LAKE ELMO      PTSUNNY   27  18  69 W17G25    29.75S WCI  14
$$
MNZ001>005-007-008-013>017-022>024-027-028-252000-
   Northwest Minnesota

CITY           SKY/WX    TMP DP  RH WIND       PRES   REMARKS
BEMIDJI        PTSUNNY   22  16  77 W17G25    29.56R WCI   7
HALLOCK        CLOUDY    23  18  80 NW14      29.58R WCI  11
ROSEAU         LGT SNOW  21  14  73 W9G18     29.52S WCI  11
WARROAD        LGT SNOW  21  16  79 SW15G22   29.51R VSB 3/4 WCI   8
CROOKSTON      FAIR      27  21  80 W8        29.62S WCI  18
FOSSTON        PTSUNNY   25  16  68 W14       29.60R WCI  13
DETROIT LAKES  CLOUDY    28  21  74 W9        29.64R WCI  20
MOORHEAD       FAIR      25  18  74 W13G20    29.68R WCI  13
PARK RAPIDS    MIX PCPN  24  19  81 W22G28    29.60R WCI   9
MAHNOMEN       FLURRIES  23  19  84 SW13      29.61S WCI  11
$$
MNZ006-009>011-018-025>026-252000-
   North Central Minnesota

CITY           SKY/WX    TMP DP  RH WIND       PRES   REMARKS
BAUDETTE       CLOUDY    24  17  74 W14G23    29.48R WCI  12
FLAG ISLAND    CLOUDY    25  18  74 W15       29.47R WCI  12
INTL FALLS     CLOUDY    27  20  75 W17G24    29.46R WCI  14
WASKISH        CLOUDY    21  16  79 SW17      29.53R WCI   7
LONGVILLE      FAIR      25  16  68 W13       29.58S WCI  13
GRAND RAPIDS   FLURRIES  25  16  68 W14G21    29.57R WCI  13
CRANE LAKE     CLOUDY    25  19  80 W7        29.47R WCI  17
ORR            CLOUDY    25  18  74 W12G17    29.44R WCI  14
COOK             N/A     25  18  74 W13G24    29.48R WCI  13
WALKER         MOCLDY    26  16  65 W16G23    29.57S WCI  13
$$
MNZ012-019>021-037-252000-
   Northeast Minnesota

CITY           SKY/WX    TMP DP  RH WIND       PRES   REMARKS
DULUTH         CLOUDY    24  18  77 W22G29    29.52R WCI   9
ELY            LGT SNOW  23  19  86 W18       29.43R WCI   9
HIBBING        LGT SNOW  24  17  74 W13G23    29.50R WCI  12
DULUTH HARBOR  CLOUDY    28  19  69 W24G32    29.57R HAZE    WCI  14
TWO HARBORS    LGT SNOW  30  21  69 W16G23    29.49R WCI  19
SILVER BAY     CLOUDY    30  21  69 W8G22     29.44R WCI  23
GRAND MARAIS     N/A     31  20  63 W14G31    29.38R WCI  21
G MARAIS ARPRT CLOUDY    25  14  63 W12G25    29.34R WCI  14
$$
MNZ029>031-032-039>041-046>048-054>057-064-252000-
   West Central Minnesota

CITY           SKY/WX    TMP DP  RH WIND       PRES   REMARKS
FERGUS FALLS   FAIR      25  19  80 W13       29.69S WCI  13
WHEATON        SUNNY     28  19  69 W14G20    29.75R WCI  17
MORRIS         LGT SNOW  28  19  69 W17       29.72R WCI  16
ALEXANDRIA     CLOUDY    26  19  74 W20G32    29.68S WCI  12
ELBOW LAKE     FAIR      26  20  77 NW15G21   29.70S WCI  14
WADENA         CLOUDY    23  19  86 W16G23    29.63F WCI  10
GLENWOOD       FAIR      27  21  80 W18G26    29.70R WCI  13
APPLETON       SUNNY     28  21  74 W15       29.76R WCI  17
BENSON           N/A     28  21  74 NW14      29.76R WCI  17
ORTONVILLE     SUNNY     28  19  69 NW13G18   29.75S WCI  18
MADISON        SUNNY     30  21  69 W18       29.77R WCI  18
WILLMAR        FAIR      25  19  80 SW17      29.77S WCI  11
$$
MNZ033>034-036-042>043-049>051-058-059-252000-
   Central Minnesota

CITY           SKY/WX    TMP DP  RH WIND       PRES   REMARKS
ST CLOUD       CLOUDY    23  17  78 W13       29.71R WCI  11
SAUK CENTRE    CLOUDY    26  20  78 W22       29.69S WCI  12
PAYNESVILLE    CLOUDY    27  22  82 W15       29.73R WCI  15
AITKIN         FAIR      23  14  68 SW15G21   29.59S WCI  10
PINE RIVER     PTSUNNY   21  16  79 W10G21    29.65R WCI  10
BRAINERD       CLOUDY    24  15  68 W21G30    29.64R WCI   9
STAPLES        CLOUDY    25  18  74 W13       29.64S WCI  13
LONG PRAIRIE   CLOUDY    27  21  80 SW21      29.68R WCI  13
LITTLE FALLS   CLOUDY    27  14  59 W10G20    29.69R WCI  17
LITCHFIELD     CLOUDY    28  21  74 W10G18    29.75S WCI  19
BUFFALO        CLOUDY    25  17  69 SW8       29.76R WCI  17
MAPLE LAKE     CLOUDY    28  20  73 W10G17    29.74S WCI  18
HUTCHINSON     FAIR      28  21  78 W22       29.76R WCI  13
$$
MNZ037-044-045-052-053-252000-
   East Central Minnesota

CITY           SKY/WX    TMP DP  RH WIND       PRES   REMARKS
PRINCETON      CLOUDY    27  18  69 SW13G22   29.71R WCI  16
CAMBRIDGE        N/A     27  16  63 W16       29.71R WCI  14
RUSH CITY      FAIR      26  15  64 W13G23    29.69S WCI  14
MOOSE LAKE     PTSUNNY   28  18  64 W13G20    29.58R WCI  18
HINCKLEY       FAIR      27  18  69 SW18      29.65R WCI  13
CLOQUET        CLOUDY    27  16  63 W15G24    29.55R WCI  15
MCGREGOR       FAIR      27  18  69 W14G22    29.59S WCI  15
$$
MNZ071>073-080-081-089-090-097-098-252000-
   Southwest Minnesota

CITY           SKY/WX    TMP DP  RH WIND       PRES   REMARKS
MONTEVIDEO     FLURRIES  34  21  60 NW13      29.77S WCI  25
GRANITE FALLS  SUNNY     29  22  75 SW17      29.80S WCI  17
CANBY          SUNNY     29  20  69 SW15      29.80R WCI  18
MARSHALL       SUNNY     30  23  75 W22       29.79R WCI  17
REDWOOD FALLS  SUNNY     27  21  78 W14G23    29.79S WCI  16
OLIVIA         SUNNY     30  23  74 W17       29.77S WCI  18
PIPESTONE      SUNNY     25  18  74 W18       29.82R WCI  11
WORTHINGTON    MOSUNNY   25  20  81 W21       29.83S WCI  11
JACKSON        SUNNY     25  19  80 W21G26    29.84R WCI  10
TRACY          SUNNY     29  24  82 W17G24    29.79R WCI  17
SLAYTON        SUNNY     25  21  85 W23G29    29.80F FOG     WCI  10
$$
MNZ065>067-074>077-082>085-091>093-252000-
   South Central Minnesota

CITY           SKY/WX    TMP DP  RH WIND       PRES   REMARKS
MANKATO        FAIR      26  18  71 W22       29.81R WCI  12
NEW ULM        SUNNY     25  19  80 W18       29.80R WCI  11
ST JAMES       SUNNY     27  19  74 SW18      29.83S WCI  13
FAIRMONT       FLURRIES  26  18  71 W17       29.85S WCI  13
GLENCOE        CLOUDY    27  21  78 SW12G18   29.77R WCI  16
FARIBAULT      PTSUNNY   27  18  69 SW15      29.79F WCI  15
OWATONNA       FAIR      25  18  74 SW17      29.80S WCI  11
WASECA         FAIR      23  18  80 SW17      29.82S WCI   9
ALBERT LEA     FAIR      25  16  68 W8G16     29.82S WCI  16
$$
MNZ078>079-086>088-094>096-252000-
   Southeast Minnesota

CITY           SKY/WX    TMP DP  RH WIND       PRES   REMARKS
ROCHESTER      FAIR      24  17  74 W17       29.79R WCI  11
RED WING       FAIR      27  12  54 W18G24    29.77S WCI  13
STANTON        CLOUDY    27  18  67 W9        29.77F WCI  18
DODGE CENTER   FAIR      21  16  79 W14       29.79R WCI   8
WINONA         FAIR      30  19  64 W13G22    29.79S WCI  20
AUSTIN         FAIR      25  16  68 W18       29.82R WCI  11
PRESTON        FAIR      26  19  74 W16G22    29.81R WCI  13
$$
ABBREVIATIONS USED IN REMARKS
   TC - TEMPERATURES IN CELSIUS
  WCI - WIND CHILL INDEX
   HX - HEAT INDEX
  VSB - VISIBILITY
$$




USA.gov is the U.S. government's official web portal to all federal, state and local government web resources and services.